| time (UTC) | temp F | wind direction | speed MPH | gust MPH | rain 1hr in | rain 24hr in | rain mn in | humidity % | barometer mb |
| 20260505061510 | 51 | 180 | 0.0 | 4.0 | 0.00 | 0.00 | 0.00 | 86 | 1011.5 |
| 20260505060012 | 51 | 195 | 0.0 | 5.0 | 0.00 | 0.00 | 0.00 | 86 | 1011.5 |
| 20260505054516 | 51 | 202 | 0.0 | 2.0 | 0.00 | 0.00 | 0.00 | 86 | 1011.6 |
| 20260505053020 | 51 | 210 | 0.0 | 4.0 | 0.00 | 0.00 | 0.00 | 85 | 1011.5 |
| 20260505051541 | 51 | 207 | 1.0 | 3.0 | 0.00 | 0.00 | 0.00 | 85 | 1011.5 |
| 20260505041527 | 52 | 222 | 0.0 | 7.0 | 0.00 | 0.00 | 0.00 | 83 | 1011.7 |
| 20260505040026 | 52 | 213 | 0.0 | 3.0 | 0.00 | 0.00 | 0.00 | 82 | 1011.7 |
| 20260505034514 | 52 | 221 | 0.0 | 4.0 | 0.00 | 0.00 | 0.00 | 82 | 1011.6 |
| 20260505033018 | 52 | 184 | 0.0 | 4.0 | 0.00 | 0.00 | 0.00 | 82 | 1011.7 |
| 20260505031520 | 52 | 185 | 0.0 | 2.0 | 0.00 | 0.00 | 0.00 | 82 | 1011.7 |
| 20260505030029 | 52 | 201 | 0.0 | 4.0 | 0.00 | 0.00 | 0.00 | 82 | 1012.0 |
| 20260505024526 | 52 | 267 | 0.0 | 3.0 | 0.00 | 0.00 | 0.00 | 82 | 1012.0 |
| 20260505023010 | 52 | 190 | 0.0 | 3.0 | 0.00 | 0.00 | 0.00 | 81 | 1011.9 |
| 20260505021518 | 52 | 192 | 0.0 | 6.0 | 0.00 | 0.00 | 0.00 | 81 | 1012.1 |
| 20260505020020 | 52 | 184 | 1.0 | 6.0 | 0.00 | 0.00 | 0.00 | 80 | 1012.1 |
| 20260505014524 | 52 | 274 | 1.0 | 7.0 | 0.00 | 0.00 | 0.00 | 79 | 1012.1 |
| 20260505013029 | 53 | 194 | 1.0 | 7.0 | 0.00 | 0.00 | 0.00 | 78 | 1012.0 |
| 20260505011517 | 53 | 209 | 1.0 | 12.0 | 0.00 | 0.00 | 0.00 | 76 | 1011.7 |
| 20260505010017 | 54 | 187 | 1.0 | 7.0 | 0.00 | 0.00 | 0.00 | 76 | 1011.4 |
| 20260505004521 | 54 | 187 | 1.0 | 9.0 | 0.00 | 0.00 | 0.00 | 75 | 1011.2 |
| 20260505003024 | 54 | 190 | 2.0 | 8.0 | 0.00 | 0.00 | 0.00 | 74 | 1011.0 |
| 20260505001528 | 55 | 236 | 0.0 | 16.0 | 0.00 | 0.00 | 0.00 | 72 | 1010.8 |
| 20260505000017 | 55 | 268 | 1.0 | 15.0 | 0.00 | 0.00 | 0.00 | 70 | 1010.6 |
| 20260504234523 | 56 | 167 | 1.0 | 7.0 | 0.00 | 0.00 | 0.00 | 68 | 1010.2 |
| 20260504233024 | 56 | 213 | 1.0 | 8.0 | 0.00 | 0.00 | 0.00 | 66 | 1010.0 |
| 20260504231525 | 57 | 202 | 2.0 | 10.0 | 0.00 | 0.00 | 0.00 | 63 | 1009.8 |
| 20260504230028 | 58 | 169 | 3.0 | 10.0 | 0.00 | 0.00 | 0.00 | 60 | 1009.6 |
| 20260504224517 | 59 | 282 | 2.0 | 10.0 | 0.00 | 0.00 | 0.00 | 56 | 1009.6 |
| 20260504223021 | 60 | 165 | 2.0 | 10.0 | 0.00 | 0.00 | 0.00 | 54 | 1009.5 |
| 20260504221523 | 61 | 194 | 1.0 | 11.0 | 0.00 | 0.00 | 0.00 | 51 | 1009.2 |
| 20260504220030 | 62 | 196 | 3.0 | 18.0 | 0.00 | 0.00 | 0.00 | 48 | 1009.3 |
| 20260504214518 | 63 | 184 | 2.0 | 14.0 | 0.00 | 0.00 | 0.00 | 48 | 1009.1 |
| 20260504213022 | 63 | 142 | 4.0 | 12.0 | 0.00 | 0.00 | 0.00 | 49 | 1009.2 |
| 20260504211523 | 64 | 232 | 3.0 | 12.0 | 0.00 | 0.00 | 0.00 | 48 | 1009.0 |
| 20260504210032 | 64 | 189 | 3.0 | 12.0 | 0.00 | 0.00 | 0.00 | 47 | 1009.0 |
| 20260504204530 | 65 | 171 | 6.0 | 19.0 | 0.00 | 0.00 | 0.00 | 45 | 1008.7 |
| 20260504203023 | 66 | 208 | 2.0 | 10.0 | 0.00 | 0.00 | 0.00 | 44 | 1008.6 |
| 20260504201520 | 66 | 207 | 3.0 | 14.0 | 0.00 | 0.00 | 0.00 | 42 | 1008.7 |
| 20260504200025 | 66 | 259 | 5.0 | 16.0 | 0.00 | 0.00 | 0.00 | 40 | 1008.5 |
| 20260504194525 | 66 | 224 | 5.0 | 17.0 | 0.00 | 0.00 | 0.00 | 43 | 1008.7 |
| 20260504193030 | 67 | 185 | 5.0 | 19.0 | 0.00 | 0.00 | 0.00 | 40 | 1008.6 |
| 20260504191524 | 67 | 225 | 5.0 | 26.0 | 0.00 | 0.00 | 0.00 | 39 | 1008.7 |
| 20260504190022 | 67 | 182 | 4.0 | 16.0 | 0.00 | 0.00 | 0.00 | 39 | 1008.9 |
| 20260504184530 | 67 | 67 | 2.0 | 13.0 | 0.00 | 0.00 | 0.00 | 42 | 1009.0 |
| 20260504183032 | 67 | 175 | 5.0 | 14.0 | 0.00 | 0.00 | 0.00 | 42 | 1009.0 |
| 20260504181529 | 68 | 252 | 3.0 | 16.0 | 0.00 | 0.00 | 0.00 | 42 | 1009.4 |
| 20260504180024 | 67 | 187 | 5.0 | 19.0 | 0.00 | 0.00 | 0.00 | 38 | 1009.3 |
| 20260504174524 | 69 | 254 | 3.0 | 14.0 | 0.00 | 0.00 | 0.00 | 37 | 1009.1 |
| 20260504173026 | 68 | 182 | 4.0 | 17.0 | 0.00 | 0.00 | 0.00 | 38 | 1008.9 |
| 20260504171528 | 69 | 161 | 3.0 | 15.0 | 0.00 | 0.00 | 0.00 | 38 | 1009.2 |
| 20260504081513 | 43 | 210 | 0.0 | 0.0 | 0.00 | 0.01 | 0.00 | 75 | 1011.2 |